sat.trackr.live / text

‹ back to catalog

STARLINK-11552 [DTC]

NORAD 62907 · 2025-027A

PAYLOAD ACTIVE UNKNOWN

§ Identity

Operator
Country
US
Launch date
2025-02-08
Launch site
AFETR
Launch vehicle
Mass (kg)
RCS (m²)

Purposes: comms

External: N2YO · Heavens-Above · Gunter

§ Orbital elements

Epoch: 2026-09-21T00:50:03.594048Z

Period
91.67 min
Inclination
42.9990°
Eccentricity
0.0002329
Mean motion
15.70841757 rev/d
Perigee alt
354.9 km
Apogee alt
358.1 km
Semi-major
6,734.6 km
B*
1.0456e-3
RAAN
250.2972°
Arg perigee
279.6484°
Mean anomaly
80.4120°
Rev number
9,391

§ Raw data

STARLINK-11552 [DTC]1 62907U 25027A   26264.03476382  .00135951  00000+0  10456-2 0  99942 62907  42.9990 250.2972 0002329 279.6484  80.4120 15.70841757 93914

JSON: /api/v1/satellites/62907 · /tle

For live sub-satellite position, see the globe view (requires WebGL).

§ Visibility from observer

Set your observer location to see the next 7 days of passes ≥ 10°. The values pass through the URL so the page stays shareable.

No JS? Fill the form by hand. The geolocation button needs JavaScript.